Weather History for Aswan, Egypt

Change the Weather History Date:

Thursday, January 16, 2014

  Actual Average Record
Temperature  
Mean Temperature 69 °F -  
Max Temperature 85 °F 73 °F 86 °F (2013)
Min Temperature 53 °F 51 °F 42 °F (2008)
Cooling Degree Days 4    
Growing Degree Days 19 (Base 50)    
Moisture  
Dew Point 42 °F    
Average Humidity 37    
Maximum Humidity 66    
Minimum Humidity 15    
Precipitation  
Precipitation 0.00 in 0.00 in - ()
Sea Level Pressure  
Sea Level Pressure 30.01 in    
Wind  
Wind Speed 4 mph ()    
Max Wind Speed 7 mph    
Max Gust Speed -    
Visibility 5.1 miles    
Events      
Averages and records for this station are not official NWS values.
T = Trace of Precipitation, MM = Missing Value Source: Averaged Metar Reports

Daily Weather History Graph

Daily Weather History Graph

Search for Another Location

Airport:

Trip Planner

Search our weather history database for the weather conditions in past years. The results will help you decide how hot, cold, wet, or windy it might be!

Date:

Astronomy

Jan. 16, 2014 Rise Set
Actual Time 6:33 AM EET 5:23 PM EET
Civil Twilight 6:09 AM EET 5:47 PM EET
Nautical Twilight 5:41 AM EET 6:15 PM EET
Astronomical Twilight 5:14 AM EET 6:42 PM EET
Moon 5:47 PM EET (1/16) 6:22 AM EET (1/16)
Length of Visible Light 11h 38m
Length of Day
10h 49m
Full, 100% of the Moon is Illuminated
Jan 16
Full
Jan 24
Last Quarter
Jan 30
New
Feb 6
First Quarter
Feb 15
Full

Hourly Weather History & Observations

Time (EET) Temp. Heat Index Dew Point Humidity Pressure Visibility Wind Dir Wind Speed Gust Speed Precip Events Conditions
12:00 AM 62.6 °F - 26.6 °F 26% 30.04 in - North 5.8 mph - N/A   Clear
1:00 AM 60.8 °F - 26.6 °F 27% 30.01 in - North 3.5 mph - N/A   Clear
2:00 AM 58 °F - 29 °F 21% 30.01 in 6 mi NNW 3.5 mph - -  
2:00 AM 59.0 °F - 28.4 °F 31% 30.01 in - NNW 3.5 mph - N/A   Clear
3:00 AM 57.2 °F - 28.4 °F 33% 30.01 in - NNW 5.8 mph - N/A   Clear
4:00 AM 55.4 °F - 28.4 °F 36% 30.01 in - North 6.9 mph - N/A   Clear
5:00 AM 55 °F - 31 °F 27% 30.02 in 6 mi NNW 5.8 mph - -  
5:00 AM 55.4 °F - 30.2 °F 38% 30.01 in - NNW 5.8 mph - N/A   Clear
6:00 AM 53.6 °F - 30.2 °F 41% 30.04 in - NW 4.6 mph - N/A   Clear
7:00 AM 50.0 °F - 39.2 °F 66% 30.06 in - Calm Calm - N/A   Clear
8:00 AM 56 °F - 38 °F 38% 30.07 in 6 mi North 6.9 mph - -  
8:00 AM 55.4 °F - 37.4 °F 51% 30.06 in - North 6.9 mph - N/A   Clear
9:00 AM 60.8 °F - 42.8 °F 52% 30.06 in - NNE 5.8 mph - N/A   Clear
10:00 AM 68.0 °F - 48.2 °F 49% 30.06 in 3.7 mi North 3.5 mph - N/A   Unknown
11:00 AM 73 °F - 52 °F 36% 30.04 in 4 mi NE 2.3 mph - -   Haze
11:00 AM 73.4 °F - 51.8 °F 47% 30.04 in 3.7 mi NE 2.3 mph - N/A   Unknown
12:00 PM 77.0 °F - 53.6 °F 44% 30.01 in 3.7 mi SSE 2.3 mph - N/A   Unknown
1:00 PM 80.6 °F - 51.8 °F 37% 30.01 in 5.0 mi SSE 2.3 mph - N/A   Unknown
2:00 PM 83 °F - 51 °F 23% 29.95 in 5 mi SW 3.5 mph - -   Haze
2:00 PM 82.4 °F - 51.8 °F 35% 29.98 in - SW 3.5 mph - N/A   Clear
3:00 PM 84.2 °F - 50.0 °F 30% 29.95 in - SW 3.5 mph - N/A   Clear
4:00 PM 84.2 °F - 51.8 °F 33% 29.95 in - SSE 5.8 mph - N/A   Clear
5:00 PM 81 °F - 53 °F 27% 29.94 in 6 mi SSE 4.6 mph - -  
5:00 PM 80.6 °F 80.3 °F 53.6 °F 39% 29.95 in - SSE 4.6 mph - N/A   Clear
6:00 PM 77.0 °F - 53.6 °F 44% 29.98 in - SSE 3.5 mph - N/A   Clear
7:00 PM 75.2 °F - 51.8 °F 44% 29.98 in - SSE 5.8 mph - N/A   Clear
8:00 PM 74 °F - 53 °F 38% 29.97 in 6 mi South 4.6 mph - -  
8:00 PM 73.4 °F - 53.6 °F 50% 29.98 in - South 4.6 mph - N/A   Clear
9:00 PM 69.8 °F - 53.6 °F 56% 29.98 in - Calm Calm - N/A   Clear
10:00 PM 69.8 °F - 37.4 °F 31% 30.01 in - WNW 6.9 mph - N/A   Clear
11:00 PM 69 °F - 32 °F 15% 29.99 in 6 mi WNW 6.9 mph - -  
11:00 PM 68.0 °F - 32.0 °F 26% 30.01 in - WNW 6.9 mph - N/A   Clear